TimeEST,TemperatureF,Dew PointF,Humidity,Sea Level PressureIn,VisibilityMPH,Wind Direction,Wind SpeedMPH,Gust SpeedMPH,PrecipitationIn,Events,Conditions,WindDirDegrees,DateUTC
12:53 AM,43.0,42.1,97,30.02,8.0,Calm,Calm,-,N/A,,Clear,0,2012-12-08 05:53:00
1:53 AM,44.1,42.1,93,30.01,7.0,Calm,Calm,-,N/A,,Clear,0,2012-12-08 06:53:00
2:53 AM,48.0,46.0,93,29.99,8.0,SW,8.1,-,N/A,,Partly Cloudy,220,2012-12-08 07:53:00
3:53 AM,46.9,46.0,97,30.00,7.0,SW,6.9,-,N/A,,Partly Cloudy,220,2012-12-08 08:53:00
4:53 AM,46.9,45.0,93,29.99,6.0,South,5.8,-,N/A,,Scattered Clouds,190,2012-12-08 09:53:00
5:31 AM,46.4,44.6,93,30.00,1.8,WSW,4.6,-,N/A,,Clear,250,2012-12-08 10:31:00
5:41 AM,46.4,44.6,93,29.99,3.0,WSW,4.6,-,N/A,,Clear,250,2012-12-08 10:41:00
5:53 AM,46.9,46.0,97,29.99,3.0,West,4.6,-,N/A,,Clear,270,2012-12-08 10:53:00
5:57 AM,46.4,44.6,93,30.00,1.8,West,4.6,-,N/A,,Clear,260,2012-12-08 10:57:00
6:05 AM,46.4,46.4,100,29.99,5.0,WSW,5.8,-,N/A,,Clear,240,2012-12-08 11:05:00
6:28 AM,44.6,44.6,100,30.01,1.8,West,4.6,-,N/A,,Clear,260,2012-12-08 11:28:00
6:36 AM,44.6,44.6,100,30.01,3.0,WSW,4.6,-,N/A,,Clear,250,2012-12-08 11:36:00
6:53 AM,46.0,45.0,96,30.02,3.0,SW,3.5,-,N/A,,Clear,230,2012-12-08 11:53:00
7:53 AM,46.0,46.0,100,30.02,3.0,SSW,6.9,-,N/A,,Partly Cloudy,200,2012-12-08 12:53:00
8:53 AM,50.0,48.9,96,30.03,6.0,SW,5.8,-,N/A,,Partly Cloudy,220,2012-12-08 13:53:00
9:53 AM,55.0,51.1,86,30.04,10.0,SW,8.1,-,N/A,,Clear,230,2012-12-08 14:53:00
10:53 AM,60.1,51.1,72,30.04,10.0,SSW,8.1,-,N/A,,Clear,210,2012-12-08 15:53:00
11:53 AM,64.0,52.0,65,30.01,10.0,SW,10.4,17.3,N/A,,Clear,220,2012-12-08 16:53:00
12:53 PM,68.0,53.1,59,29.99,10.0,SW,15.0,21.9,N/A,,Clear,230,2012-12-08 17:53:00
1:53 PM,68.0,53.1,59,29.96,10.0,SW,9.2,-,N/A,,Overcast,230,2012-12-08 18:53:00
2:53 PM,66.9,54.0,63,29.98,10.0,WSW,10.4,-,N/A,,Overcast,240,2012-12-08 19:53:00
3:53 PM,64.9,54.0,68,29.99,10.0,SW,12.7,-,N/A,,Overcast,220,2012-12-08 20:53:00
4:53 PM,62.1,55.0,78,30.00,10.0,SSW,11.5,-,N/A,,Overcast,210,2012-12-08 21:53:00
5:14 PM,60.8,55.4,82,30.02,3.0,SW,8.1,-,0.01,Rain,Light Rain,220,2012-12-08 22:14:00
5:27 PM,59.0,57.2,94,30.01,7.0,SSW,9.2,-,0.01,,Overcast,210,2012-12-08 22:27:00
5:53 PM,59.0,57.0,93,30.00,7.0,SSW,10.4,-,0.01,,Overcast,210,2012-12-08 22:53:00
6:53 PM,57.9,55.9,93,30.01,9.0,SW,5.8,-,N/A,,Mostly Cloudy,230,2012-12-08 23:53:00
7:53 PM,55.9,55.0,97,30.03,7.0,West,4.6,-,N/A,,Mostly Cloudy,260,2012-12-09 00:53:00
8:24 PM,55.4,53.6,94,30.04,1.8,West,4.6,-,N/A,,Clear,270,2012-12-09 01:24:00
8:38 PM,53.6,53.6,100,30.04,1.5,West,3.5,-,N/A,,Partly Cloudy,260,2012-12-09 01:38:00
8:43 PM,53.6,53.6,100,30.04,3.0,Calm,Calm,-,N/A,,Clear,0,2012-12-09 01:43:00
8:53 PM,55.9,55.0,97,30.03,2.0,Calm,Calm,-,N/A,,Clear,0,2012-12-09 01:53:00
8:55 PM,55.4,55.4,100,30.04,1.2,Calm,Calm,-,N/A,,Partly Cloudy,0,2012-12-09 01:55:00
8:58 PM,55.4,53.6,94,30.04,0.8,Calm,Calm,-,N/A,,Mist,0,2012-12-09 01:58:00
9:04 PM,55.4,53.6,94,30.04,1.0,WSW,3.5,-,N/A,,Scattered Clouds,240,2012-12-09 02:04:00
9:09 PM,55.4,53.6,94,30.04,2.0,SW,3.5,-,N/A,,Scattered Clouds,220,2012-12-09 02:09:00
9:21 PM,55.4,55.4,100,30.04,3.0,South,5.8,-,N/A,,Scattered Clouds,180,2012-12-09 02:21:00
9:49 PM,55.4,53.6,94,30.04,1.8,SW,4.6,-,N/A,,Overcast,230,2012-12-09 02:49:00
9:53 PM,55.0,55.0,100,30.04,3.0,SW,3.5,-,N/A,,Overcast,230,2012-12-09 02:53:00
10:53 PM,55.9,55.0,97,30.04,3.0,West,3.5,-,0.01,Rain,Light Rain,280,2012-12-09 03:53:00
11:53 PM,57.0,55.9,96,30.04,3.0,Calm,Calm,-,0.00,,Overcast,0,2012-12-09 04:53:00